MET'MAP v2.0
soon released !

Expected late october,
this new version will be
more efficient, smarter,
and hosted on a brand new
server x3 powerfull...
...and still free !


Not compatible ?
Try the mobile version !

LOG IN : | Subscribe | Disclaimer | Who is Orbifly ? |
ICAO code :

TAF - LFOE Evreux - 20 Jan 2020 06:36 UTC
Data Sources :     NOAA   


- Airport Elevation : 464 ft
- IATA code : EVX
- No reported NOTAMs.


LFOE - Evreux

Latest METAR recorded : 2020/01/20 05:00 LFOE 200500Z AUTO 04005KT 9000 NSC 00/M00 Q1046
NO TAF


MET'MAP, your aeronautical weather chart ! - Copyright ORBIFLY December 2007

Programming & Development : Alexandra Zaïnal
Co-Developer : Marc-Olivier Méhu
Technical & hardware support : Manuel Goepfert
Concept & Financing : Baudouin d'Aumeries